Regional Weather Roundup
Issued by NWS

Home | Current Version | Previous Version | Text Only | Print | Product List | Glossary On
Versions: 1 2 3 4 5 6 7 8 9 10 11 12 13 14 15 16 17 18 19 20 21 22 23 24 25 26 27 28 29 30 31 32 33 34 35 36 37 38 39 40 41 42 43 44 45 46 47 48 49 50
000
ASUS43 KOAX 011402
RWRNE

WEATHER ROUNDUP FOR NEBRASKA
NATIONAL WEATHER SERVICE OMAHA NE
900 AM CDT SAT OCT 01 2016

NOTES: SATELLITE DATA IS BEING USED TO AUGMENT CLOUD COVER ABOVE
       12000 FEET.
       "FAIR" INDICATES FEW OR NO CLOUDS BELOW 12,000 FEET WITH NO
       SIGNIFICANT WEATHER AND/OR OBSTRUCTIONS TO VISIBILITY.

  * THESE STATIONS DO NOT REPORT WEATHER SUCH AS RAIN...SNOW OR FOG.

NEZ001>004-019>022-054>056-011500-
NEBRASKA PANHANDLE

CITY           SKY/WX    TMP DP  RH WIND       PRES   REMARKS
SCOTTSBLUFF    SUNNY     50  45  83 CALM      30.08S
ALLIANCE       SUNNY     50  45  83 S5        30.07S
CHADRON        SUNNY     52  46  80 W3        30.03S
KIMBALL        SUNNY     51  46  84 W6        30.12S
SIDNEY         SUNNY     50  46  86 SW8       30.11S
$$

NEZ057>060-069>072-079>082-011500-
SOUTHWEST NEBRASKA

CITY           SKY/WX    TMP DP  RH WIND       PRES   REMARKS
NORTH PLATTE   MOSUNNY   54  47  77 SE3       30.11F
IMPERIAL       SUNNY     51  45  79 SE8       30.11S
LEXINGTON      SUNNY     53  47  81 SE5       30.13S
MCCOOK         CLOUDY    50  46  86 CALM      30.13S
OGALLALA       SUNNY     52  46  80 CALM      30.11S
$$

NEZ005>010-023>029-035>040-094-011500-
NORTH CENTRAL NEBRASKA

CITY           SKY/WX    TMP DP  RH WIND       PRES   REMARKS
VALENTINE      CLOUDY    55  45  68 E3        30.07S
AINSWORTH      CLOUDY    56  47  71 S10       30.09S
BROKEN BOW     SUNNY     48  45  89 SE3       30.12F
O`NEILL        SUNNY     51  44  78 SE7       30.14R
ORD            MOSUNNY   50  45  83 CALM      30.12F
THEDFORD       CLOUDY    55  47  73 S8        30.10S
$$

NEZ041-046>049-061>064-073>077-083>087-011500-
SOUTH CENTRAL NEBRASKA

CITY           SKY/WX    TMP DP  RH WIND       PRES   REMARKS
GRAND ISLAND   PTSUNNY   54  50  86 S3        30.15S
AURORA         MOSUNNY   56  55  95 SE5       30.15S
HASTINGS       MOSUNNY   52  46  80 CALM      30.15F
HEBRON         CLOUDY    52  50  93 CALM      30.15S
HOLDREGE       SUNNY     52  47  84 SE5       30.13F
KEARNEY *      SUNNY     54  46  76 CALM      30.13F
YORK           PTSUNNY   54  50  87 CALM      30.16S
$$

NEZ011>018-030>034-042>045-011500-
NORTHEAST NEBRASKA

CITY           SKY/WX    TMP DP  RH WIND       PRES   REMARKS
NORFOLK        SUNNY     49  46  90 CALM      30.15S
ALBION         PTSUNNY   52  49  90 CALM      30.15S
BLAIR          CLOUDY    58  55  89 N3        30.14F
FREMONT        CLOUDY    56  54  92 CALM      30.15S
TEKAMAH        CLOUDY    58  54  86 NW3       30.14F
WAYNE          MOSUNNY   49  47  92 CALM      30.16S
$$

NEZ050>053-065>068-078-088>093-011500-
SOUTHEAST NEBRASKA

CITY           SKY/WX    TMP DP  RH WIND       PRES   REMARKS
LINCOLN        FOG       52  49  89 CALM      30.16S VSB 1
OMAHA EPPLEY   CLOUDY    59  54  83 NW3       30.14F
BEATRICE       CLOUDY    51  51  99 CALM      30.15R
FALLS CITY     MOSUNNY   56  54  93 NW6       30.13S
NEBRASKA CITY  CLOUDY    57  55  92 CALM      30.14S
PLATTSMOUTH    CLOUDY    58  54  85 CALM      30.14F
$$

NEZ044-045-051>053-067-011500-
OMAHA AREA

CITY           SKY/WX    TMP DP  RH WIND       PRES   REMARKS
OMAHA EPPLEY   CLOUDY    59  54  83 NW3       30.14F
BLAIR          CLOUDY    58  55  89 N3        30.14F
FREMONT        CLOUDY    56  54  92 CALM      30.15S
MILLARD        CLOUDY    60  55  83 CALM      30.14F
OFFUTT AFB     CLOUDY    59  57  94 NE2       30.13F
PLATTSMOUTH    CLOUDY    58  54  85 CALM      30.14F
WAHOO          FAIR      52  51  97 CALM      30.15S
$$



USA.gov is the U.S. government's official web portal to all federal, state and local government web resources and services.